Location: Unspecified
(0.0000°N, 0.0000°E)
Time: 18:49:34
(UTC+02:00)

IUS-9 SRM-1 - Visible Passes

Search period start: 28 June 2016 00:00
Search period end: 08 July 2016 00:00
Orbit: 235 x 20097 km, 26.5° (Epoch: 27 June)

Date Brightness Start Highest point End Pass type
(mag) Time Alt. Az. Time Alt. Az. Time Alt. Az.
28 Jun 8.9 03:43:31 10° WSW 07:50:12 47° NNW 08:26:42 10° NE visible
28 Jun 6.9 20:46:52 10° SSW 21:00:19 32° SE 00:23:13 10° ENE visible
29 Jun 8.8 03:09:20 10° WSW 05:21:30 52° WNW 07:56:23 10° NE visible
29 Jun 6.7 20:17:31 10° SSW 20:28:22 27° SSE 22:33:28 10° E visible
30 Jun 8.6 02:36:10 10° WSW 04:38:14 60° WNW 07:25:45 10° NE visible
30 Jun 6.5 19:48:13 10° SSW 19:56:44 22° SSE 20:34:44 10° ESE visible
01 Jul 8.5 02:03:43 10° WSW 03:55:31 67° WNW 06:54:46 10° NE visible
02 Jul 8.4 01:31:46 10° WSW 03:11:55 75° WNW 06:23:22 10° NE visible
03 Jul 8.2 01:00:10 10° WSW 02:26:43 82° WNW 05:51:29 10° NE visible
04 Jul 8.1 00:28:50 10° WSW 01:40:10 89° NW 05:19:01 10° NE visible
04 Jul 8.0 23:57:42 10° SW 00:54:10 84° SE 04:45:51 10° ENE visible
05 Jul 7.8 23:26:41 10° SW 00:10:50 77° SE 04:11:48 10° ENE visible
06 Jul 7.3 09:12:51 10° WNW 10:30:51 40° N 10:39:14 10° ENE visible
06 Jul 7.7 22:55:47 10° SW 23:30:40 71° SE 03:36:37 10° ENE visible
07 Jul 7.6 06:39:50 10° W 09:58:07 41° N 10:08:35 10° ENE visible
